Location: Eurasberg
(48.3353°N, 11.0839°E)
Time: 10:16:52
(UTC+00:00)

SeaSat 1 - Pass Details

Date: 18 January 2026
Orbit: 737 x 739 km, 108.0° (Epoch: 10 February)

Event Time Altitude Azimuth Distance (km) Brightness Sun altitude
Rises 05:27:27 0° 33° (NNE) 3,185 6.0 -15.0°
Reaches altitude 10° 05:29:48 10° 39° (NE) 2,257 5.2 -14.6°
Maximum altitude 05:34:33 48° 114° (ESE) 965 3.5 -13.8°
Drops below altitude 10° 05:39:15 10° 188° (S) 2,242 5.0 -13.1°
Sets 05:41:35 0° 194° (SSW) 3,161 5.7 -12.7°
